[[{"header":{"parameterUnit":"m.s-1","parameterCategory":1,"la1":30.2992,"la2":30.254,"lo1":-89.0895,"lo2":-89.0443,"dy":0.0025,"dx":0.0025,"nx":19,"ny":19,"refTime":"2026-03-23T03:00:00:Z","depth":0,"parameterNumber":2,"parameterNumberName":"U-component_of_WINDS"},"data":[0,0,0,-3.5864,-3.5869,-3.6157,-3.6158,-3.651,-3.6513,0,0,0,0,0,0,0,0,0,0,0,-3.5766,-3.5768,-3.5863,-3.587,-3.6157,-3.6158,-3.6509,-3.6513,0,0,0,0,0,0,0,0,0,0,0,-3.5766,-3.5768,-3.577,-3.5871,-3.6156,-3.6158,-3.6509,-3.6298,0,0,0,0,0,0,0,0,0,0,-3.6022,-3.592,-3.5767,-3.577,-3.5873,-3.6156,-3.6158,-3.6288,-3.6311,-3.6372,0,-3.6421,0,-3.6472,-3.6535,-3.6536,0,0,0,-3.588,-3.5901,-3.5989,-3.5771,-3.5875,-3.6156,-3.603,-3.6301,-3.6327,-3.6403,-3.6426,-3.644,-3.6478,-3.6537,-3.6539,-3.6853,-3.6854,0,0,-3.5864,-3.5812,-3.5971,-3.6005,-3.5957,-3.6021,-3.6039,-3.6317,-3.6341,-3.6428,-3.6448,-3.6484,-3.654,-3.6542,-3.6852,-3.6854,0,0,0,-3.5812,-3.5801,-3.5882,-3.599,-3.6043,-3.6029,-3.605,-3.6328,-3.6359,-3.6452,-3.6488,-3.6541,-3.6546,-3.6851,-3.6853,-3.685,0,0,0,-3.5803,-3.577,-3.5875,-3.5846,-3.6037,-3.6188,-3.6054,-3.634,-3.6373,-3.6486,-3.6542,-3.6549,-3.685,-3.6852,-3.6848,-3.6857,0,0,0,-3.5752,-3.5765,-3.5802,-3.5843,-3.5964,-3.6185,-3.6232,-3.6348,-3.6394,-3.6537,-3.655,-3.685,-3.6852,-3.6846,-3.6854,-3.6924,0,0,0,-3.5683,-3.5797,-3.5801,-3.5942,-3.5961,-3.6181,-3.6231,-3.6398,-3.652,-3.6543,-3.6851,-3.6853,-3.6845,-3.6852,-3.6921,-3.697,-3.6987,0,0,-3.5798,-3.5809,-3.5896,-3.5908,-3.6113,-3.6142,-3.6349,-3.6511,-3.6573,-3.6757,-3.6766,-3.6849,-3.6854,-3.6923,-3.71,-3.7112,0,0,0,-3.5915,-3.5976,-3.6042,-3.6155,-3.628,-3.6389,-3.6525,-3.6585,-3.6744,-3.6656,-3.6896,-3.69,-3.6943,-3.6969,-3.698,-3.7019,-3.6863,-3.6863,-3.6863,-3.6,-3.6073,-3.6222,-3.633,-3.6439,-3.6578,-3.6674,-3.678,-3.6823,-3.6878,-3.6932,-3.703,-3.7059,-3.7067,-3.7108,-3.6967,-3.6967,-3.6967,-3.6967,-3.6173,-3.6271,-3.6325,-3.6489,-3.6566,-3.6706,-3.6846,-3.6872,-3.7014,-3.6996,-3.7037,-3.7007,-3.7078,-3.7118,-3.6967,-3.6967,-3.6967,-3.6967,-3.6967,-3.6234,-3.6294,-3.6365,-3.6536,-3.6661,-3.6768,-3.6902,-3.6969,-3.7034,-3.7075,-3.7139,-3.7139,-3.7146,-3.7101,-3.7101,-3.7102,-3.7102,-3.7102,-3.7102,-3.6269,-3.635,-3.6452,-3.6596,-3.6678,-3.6794,-3.6938,-3.7021,-3.7131,-3.7169,-3.717,-3.7206,-3.7072,-3.7035,-3.7108,-3.7107,-3.7106,-3.7106,-3.7105,-3.6412,-3.639,-3.6549,-3.663,-3.6806,-3.6925,-3.701,-3.7175,-3.7254,-3.7318,-3.7348,-3.7238,-3.7255,-3.7247,-3.7217,-3.7332,-3.7332,-3.7332,-3.7332,-3.6461,-3.6477,-3.6654,-3.6781,-3.6913,-3.7006,-3.7186,-3.73,-3.7415,-3.7469,-3.7463,-3.743,-3.7419,-3.7443,-3.743,-3.7403,-3.7563,-3.7564,-3.7564,-3.6553,-3.6584,-3.6722,-3.6832,-3.6975,-3.7096,-3.7268,-3.7413,-3.754,-3.7575,-3.7513,-3.7503,-3.7451,-3.743,-3.7459,-3.7438,-3.739,0,0]},{"header":{"parameterUnit":"m.s-1","parameterCategory":1,"la1":30.2992,"la2":30.254,"lo1":-89.0895,"lo2":-89.0443,"dy":0.0025,"dx":0.0025,"nx":19,"ny":19,"refTime":"2026-03-23T03:00:00:Z","depth":0,"parameterNumber":3,"parameterNumberName":"V-component_of_WINDS"},"data":[0,0,0,2.5673,2.5674,2.5696,2.5696,2.5726,2.5727,0,0,0,0,0,0,0,0,0,0,0,2.5669,2.5669,2.5673,2.5674,2.5696,2.5696,2.5726,2.5727,0,0,0,0,0,0,0,0,0,0,0,2.5668,2.5669,2.5669,2.5674,2.5695,2.5696,2.5726,2.5709,0,0,0,0,0,0,0,0,0,0,2.5687,2.5685,2.5669,2.5669,2.5674,2.5695,2.5696,2.5708,2.571,2.5718,0,2.5726,0,2.5727,2.5729,2.5729,0,0,0,2.5672,2.5683,2.5687,2.5669,2.5674,2.5695,2.5685,2.5709,2.5711,2.5721,2.5726,2.5728,2.5728,2.5729,2.5729,2.5785,2.5785,0,0,2.5671,2.5673,2.5686,2.5689,2.5686,2.5684,2.5686,2.571,2.5716,2.5727,2.5728,2.5728,2.573,2.573,2.5784,2.5785,0,0,0,2.5668,2.5672,2.5676,2.5688,2.5692,2.5685,2.5687,2.5715,2.5716,2.5729,2.5728,2.573,2.573,2.5784,2.5784,2.5804,0,0,0,2.5668,2.5671,2.5676,2.5677,2.5691,2.5704,2.5691,2.5715,2.5717,2.5728,2.573,2.5731,2.5783,2.5784,2.5802,2.5812,0,0,0,2.5666,2.5671,2.5675,2.5678,2.5687,2.5703,2.5706,2.5715,2.5717,2.5729,2.5731,2.5783,2.5784,2.5801,2.581,2.5827,0,0,0,2.5666,2.5691,2.5675,2.5704,2.5687,2.5716,2.5705,2.5726,2.5739,2.573,2.5784,2.5784,2.5801,2.5809,2.5826,2.5842,2.5849,0,0,2.5699,2.5695,2.5712,2.5698,2.5731,2.5712,2.5747,2.5755,2.5754,2.5774,2.5776,2.5803,2.581,2.5827,2.5889,2.5895,0,0,0,2.5723,2.5735,2.5743,2.5756,2.5764,2.5772,2.5775,2.5779,2.5796,2.5765,2.5814,2.5818,2.5828,2.5836,2.584,2.5849,2.5788,2.5788,2.5788,2.5772,2.577,2.5798,2.5799,2.5812,2.5817,2.5827,2.5832,2.5825,2.5837,2.5842,2.5881,2.5889,2.5893,2.5902,2.5852,2.5852,2.5852,2.5852,2.582,2.5836,2.583,2.5854,2.5852,2.5872,2.5878,2.5873,2.5892,2.5876,2.5884,2.5866,2.5899,2.5907,2.5853,2.5853,2.5853,2.5853,2.5853,2.585,2.5858,2.5864,2.5884,2.5899,2.59,2.5919,2.5917,2.5914,2.5923,2.5929,2.5928,2.5927,2.5926,2.5927,2.5927,2.5927,2.5927,2.5927,2.5879,2.5885,2.5902,2.5915,2.5924,2.5936,2.5943,2.5951,2.596,2.5957,2.5957,2.5949,2.5903,2.5891,2.5929,2.5929,2.5928,2.5928,2.5928,2.5926,2.5916,2.5942,2.5951,2.5967,2.5984,2.5982,2.6,2.6007,2.6016,2.6008,2.5975,2.597,2.5966,2.5956,2.6008,2.6008,2.6008,2.6008,2.5951,2.595,2.5977,2.5992,2.6007,2.6009,2.6038,2.6044,2.6049,2.6053,2.6046,2.6033,2.6029,2.6027,2.6022,2.6012,2.6077,2.6077,2.6077,2.598,2.598,2.6005,2.6012,2.6025,2.6037,2.6064,2.6082,2.6085,2.608,2.6057,2.6054,2.6033,2.6026,2.6018,2.601,2.5993,0,0]}]]